Year,Month,Day,Hour,Minute,Value (Times are PST for temperature in C)
2018,07,15,00,00,18.60
2018,07,15,00,01,18.60
2018,07,15,00,02,18.60
2018,07,15,00,03,18.60
2018,07,15,00,04,18.60
2018,07,15,00,05,18.60
2018,07,15,00,06,18.60
2018,07,15,00,07,18.60
2018,07,15,00,08,18.60
2018,07,15,00,09,18.60
2018,07,15,00,10,18.60
2018,07,15,00,11,18.50
2018,07,15,00,12,18.50
2018,07,15,00,13,18.50
2018,07,15,00,14,18.40
2018,07,15,00,15,18.40
2018,07,15,00,16,18.40
2018,07,15,00,17,18.40
2018,07,15,00,18,18.40
2018,07,15,00,19,18.40
2018,07,15,00,20,18.40
2018,07,15,00,21,18.30
2018,07,15,00,22,18.30
2018,07,15,00,23,18.30
2018,07,15,00,24,18.30
2018,07,15,00,25,18.30
2018,07,15,00,26,18.30
2018,07,15,00,27,18.30
2018,07,15,00,28,18.30
2018,07,15,00,29,18.30
2018,07,15,00,30,18.30
2018,07,15,00,31,18.30
2018,07,15,00,32,18.30
2018,07,15,00,33,18.30
2018,07,15,00,34,18.30
2018,07,15,00,35,18.20
2018,07,15,00,36,18.20
2018,07,15,00,37,18.20
2018,07,15,00,38,18.20
2018,07,15,00,39,18.20
2018,07,15,00,40,18.20
2018,07,15,00,41,18.20
2018,07,15,00,42,18.20
2018,07,15,00,43,18.20
2018,07,15,00,44,18.20
2018,07,15,00,45,18.20
2018,07,15,00,46,18.20
2018,07,15,00,47,18.20
2018,07,15,00,48,18.20
2018,07,15,00,49,18.10
2018,07,15,00,50,18.10
2018,07,15,00,51,18.00
2018,07,15,00,52,17.90
2018,07,15,00,53,17.90
2018,07,15,00,54,17.80
2018,07,15,00,55,17.70
2018,07,15,00,56,17.60
2018,07,15,00,57,17.40
2018,07,15,00,58,17.10
2018,07,15,00,59,16.90
2018,07,15,01,00,16.80
2018,07,15,01,01,16.60
2018,07,15,01,02,16.50
2018,07,15,01,03,16.30
2018,07,15,01,04,16.20
2018,07,15,01,05,16.10
2018,07,15,01,06,16.00
2018,07,15,01,07,15.90
2018,07,15,01,08,15.80
2018,07,15,01,09,15.70
2018,07,15,01,10,15.60
2018,07,15,01,11,15.50
2018,07,15,01,12,15.40
2018,07,15,01,13,15.30
2018,07,15,01,14,15.30
2018,07,15,01,15,15.20
2018,07,15,01,16,15.20
2018,07,15,01,17,15.10
2018,07,15,01,18,15.10
2018,07,15,01,19,15.00
2018,07,15,01,20,15.00
2018,07,15,01,21,14.90
2018,07,15,01,22,14.90
2018,07,15,01,23,14.80
2018,07,15,01,24,14.80
2018,07,15,01,25,14.80
2018,07,15,01,26,14.80
2018,07,15,01,27,14.70
2018,07,15,01,28,14.70
2018,07,15,01,29,14.70
2018,07,15,01,30,14.60
2018,07,15,01,31,14.60
2018,07,15,01,32,14.60
2018,07,15,01,33,14.60
2018,07,15,01,34,14.60
2018,07,15,01,35,14.60
2018,07,15,01,36,14.60
2018,07,15,01,37,14.60
2018,07,15,01,38,14.60
2018,07,15,01,39,14.50
2018,07,15,01,40,14.60
2018,07,15,01,41,14.60
2018,07,15,01,42,14.50
2018,07,15,01,43,14.50
2018,07,15,01,44,14.50
2018,07,15,01,45,14.60
2018,07,15,01,46,14.60
2018,07,15,01,47,14.60
2018,07,15,01,48,14.60
2018,07,15,01,49,14.60
2018,07,15,01,50,14.70
2018,07,15,01,51,14.70
2018,07,15,01,52,14.70
2018,07,15,01,53,14.70
2018,07,15,01,54,14.70
2018,07,15,01,55,14.70
2018,07,15,01,56,14.70
2018,07,15,01,57,14.70
2018,07,15,01,58,14.70
2018,07,15,01,59,14.70
2018,07,15,02,00,14.70
2018,07,15,02,01,14.70
2018,07,15,02,02,14.70
2018,07,15,02,03,14.70
2018,07,15,02,04,14.70
2018,07,15,02,05,14.70
2018,07,15,02,06,14.70
2018,07,15,02,07,14.70
2018,07,15,02,08,14.70
2018,07,15,02,09,14.60
2018,07,15,02,10,14.60
2018,07,15,02,11,14.60
2018,07,15,02,12,14.60
2018,07,15,02,13,14.60
2018,07,15,02,14,14.60
2018,07,15,02,15,14.60
2018,07,15,02,16,14.60
2018,07,15,02,17,14.60
2018,07,15,02,18,14.60
2018,07,15,02,19,14.60
2018,07,15,02,20,14.60
2018,07,15,02,21,14.50
2018,07,15,02,22,14.50
2018,07,15,02,23,14.50
2018,07,15,02,24,14.50
2018,07,15,02,25,14.50
2018,07,15,02,26,14.60
2018,07,15,02,27,14.60
2018,07,15,02,28,14.60
2018,07,15,02,29,14.60
2018,07,15,02,30,14.60
2018,07,15,02,31,14.50
2018,07,15,02,32,14.50
2018,07,15,02,33,14.50
2018,07,15,02,34,14.50
2018,07,15,02,35,14.50
2018,07,15,02,36,14.50
2018,07,15,02,37,14.50
2018,07,15,02,38,14.50
2018,07,15,02,39,14.40
2018,07,15,02,40,14.40
2018,07,15,02,41,14.40
2018,07,15,02,42,14.40
2018,07,15,02,43,14.40
2018,07,15,02,44,14.40
2018,07,15,02,45,14.40
2018,07,15,02,46,14.40
2018,07,15,02,47,14.40
2018,07,15,02,48,14.30
2018,07,15,02,49,14.30
2018,07,15,02,50,14.30
2018,07,15,02,51,14.30
2018,07,15,02,52,14.20
2018,07,15,02,53,14.20
2018,07,15,02,54,14.20
2018,07,15,02,55,14.20
2018,07,15,02,56,14.20
2018,07,15,02,57,14.20
2018,07,15,02,58,14.20
2018,07,15,02,59,14.10
2018,07,15,03,00,14.10
2018,07,15,03,01,14.00
2018,07,15,03,02,14.00
2018,07,15,03,03,14.00
2018,07,15,03,04,13.90
2018,07,15,03,05,13.90
2018,07,15,03,06,13.90
2018,07,15,03,07,13.80
2018,07,15,03,08,13.80
2018,07,15,03,09,13.70
2018,07,15,03,10,13.70
2018,07,15,03,11,13.70
2018,07,15,03,12,13.70
2018,07,15,03,13,13.70
2018,07,15,03,14,13.60
2018,07,15,03,15,13.60
2018,07,15,03,16,13.60
2018,07,15,03,17,13.60
2018,07,15,03,18,13.70
2018,07,15,03,19,13.70
2018,07,15,03,20,13.70
2018,07,15,03,21,13.70
2018,07,15,03,22,13.70
2018,07,15,03,23,13.70
2018,07,15,03,24,13.70
2018,07,15,03,25,13.70
2018,07,15,03,26,13.70
2018,07,15,03,27,13.70
2018,07,15,03,28,13.70
2018,07,15,03,29,13.70
2018,07,15,03,30,13.70
2018,07,15,03,31,13.70
2018,07,15,03,32,13.70
2018,07,15,03,33,13.70
2018,07,15,03,34,13.70
2018,07,15,03,35,13.60
2018,07,15,03,36,13.60
2018,07,15,03,37,13.60
2018,07,15,03,38,13.50
2018,07,15,03,39,13.50
2018,07,15,03,40,13.50
2018,07,15,03,41,13.40
2018,07,15,03,42,13.40
2018,07,15,03,43,13.40
2018,07,15,03,44,13.30
2018,07,15,03,45,13.30
2018,07,15,03,46,13.30
2018,07,15,03,47,13.30
2018,07,15,03,48,13.30
2018,07,15,03,49,13.30
2018,07,15,03,50,13.40
2018,07,15,03,51,13.40
2018,07,15,03,52,13.40
2018,07,15,03,53,13.40
2018,07,15,03,54,13.40
2018,07,15,03,55,13.40
2018,07,15,03,56,13.40
2018,07,15,03,57,13.40
2018,07,15,03,58,13.40
2018,07,15,03,59,13.40
2018,07,15,04,00,13.50
2018,07,15,04,01,13.50
2018,07,15,04,02,13.50
2018,07,15,04,03,13.50
2018,07,15,04,04,13.50
2018,07,15,04,05,13.50
2018,07,15,04,06,13.50
2018,07,15,04,07,13.50
2018,07,15,04,08,13.50
2018,07,15,04,09,13.50
2018,07,15,04,10,13.50
2018,07,15,04,11,13.50
2018,07,15,04,12,13.50
2018,07,15,04,13,13.60
2018,07,15,04,14,13.60
2018,07,15,04,15,13.60
2018,07,15,04,16,13.60
2018,07,15,04,17,13.60
2018,07,15,04,18,13.60
2018,07,15,04,19,13.60
2018,07,15,04,20,13.60
2018,07,15,04,21,13.60
2018,07,15,04,22,13.60
2018,07,15,04,23,13.50
2018,07,15,04,24,13.50
2018,07,15,04,25,13.40
2018,07,15,04,26,13.40
2018,07,15,04,27,13.30
2018,07,15,04,28,13.30
2018,07,15,04,29,13.30
2018,07,15,04,30,13.30
2018,07,15,04,31,13.30
2018,07,15,04,32,13.30
2018,07,15,04,33,13.30
2018,07,15,04,34,13.30
2018,07,15,04,35,13.30
2018,07,15,04,36,13.30
2018,07,15,04,37,13.30
2018,07,15,04,38,13.30
2018,07,15,04,39,13.30
2018,07,15,04,40,13.30
2018,07,15,04,41,13.30
2018,07,15,04,42,13.30
2018,07,15,04,43,13.30
2018,07,15,04,44,13.30
2018,07,15,04,45,13.30
2018,07,15,04,46,13.30
2018,07,15,04,47,13.30
2018,07,15,04,48,13.30
2018,07,15,04,49,13.30
2018,07,15,04,50,13.30
2018,07,15,04,51,13.20
2018,07,15,04,52,13.10
2018,07,15,04,53,13.10
2018,07,15,04,54,13.00
2018,07,15,04,55,13.00
2018,07,15,04,56,12.90
2018,07,15,04,57,12.90
2018,07,15,04,58,12.80
2018,07,15,04,59,12.80
2018,07,15,05,00,12.80
2018,07,15,05,01,12.80
2018,07,15,05,02,12.80
2018,07,15,05,03,12.80
2018,07,15,05,04,12.80
2018,07,15,05,05,12.80
2018,07,15,05,06,12.80
2018,07,15,05,07,12.80
2018,07,15,05,08,12.80
2018,07,15,05,09,12.80
2018,07,15,05,10,12.80
2018,07,15,05,11,12.80
2018,07,15,05,12,12.80
2018,07,15,05,13,12.80
2018,07,15,05,14,12.70
2018,07,15,05,15,12.70
2018,07,15,05,16,12.70
2018,07,15,05,17,12.70
2018,07,15,05,18,12.70
2018,07,15,05,19,12.70
2018,07,15,05,20,12.70
2018,07,15,05,21,12.60
2018,07,15,05,22,12.60
2018,07,15,05,23,12.60
2018,07,15,05,24,12.60
2018,07,15,05,25,12.60
2018,07,15,05,26,12.60
2018,07,15,05,27,12.50
2018,07,15,05,28,12.50
2018,07,15,05,29,12.50
2018,07,15,05,30,12.50
2018,07,15,05,31,12.40
2018,07,15,05,32,12.40
2018,07,15,05,33,12.40
2018,07,15,05,34,12.40
2018,07,15,05,35,12.40
2018,07,15,05,36,12.40
2018,07,15,05,37,12.40
2018,07,15,05,38,12.40
2018,07,15,05,39,12.40
2018,07,15,05,40,12.40
2018,07,15,05,41,12.40
2018,07,15,05,42,12.30
2018,07,15,05,43,12.30
2018,07,15,05,44,12.30
2018,07,15,05,45,12.30
2018,07,15,05,46,12.30
2018,07,15,05,47,12.30
2018,07,15,05,48,12.30
2018,07,15,05,49,12.30
2018,07,15,05,50,12.30
2018,07,15,05,51,12.30
2018,07,15,05,52,12.30
2018,07,15,05,53,12.30
2018,07,15,05,54,12.30
2018,07,15,05,55,12.30
2018,07,15,05,56,12.30
2018,07,15,05,57,12.30
2018,07,15,05,58,12.30
2018,07,15,05,59,12.40
2018,07,15,06,00,12.40
2018,07,15,06,01,12.40
2018,07,15,06,02,12.40
2018,07,15,06,03,12.40
2018,07,15,06,04,12.50
2018,07,15,06,05,12.50
2018,07,15,06,06,12.50
2018,07,15,06,07,12.60
2018,07,15,06,08,12.60
2018,07,15,06,09,12.70
2018,07,15,06,10,12.70
2018,07,15,06,11,12.70
2018,07,15,06,12,12.80
2018,07,15,06,13,12.80
2018,07,15,06,14,12.80
2018,07,15,06,15,12.80
2018,07,15,06,16,12.80
2018,07,15,06,17,12.80
2018,07,15,06,18,12.80
2018,07,15,06,19,12.80
2018,07,15,06,20,12.90
2018,07,15,06,21,12.90
2018,07,15,06,22,12.90
2018,07,15,06,23,13.00
2018,07,15,06,24,13.00
2018,07,15,06,25,13.00
2018,07,15,06,26,13.10
2018,07,15,06,27,13.10
2018,07,15,06,28,13.10
2018,07,15,06,29,13.20
2018,07,15,06,30,13.20
2018,07,15,06,31,13.20
2018,07,15,06,32,13.30
2018,07,15,06,33,13.30
2018,07,15,06,34,13.30
2018,07,15,06,35,13.40
2018,07,15,06,36,13.50
2018,07,15,06,37,13.50
2018,07,15,06,38,13.60
2018,07,15,06,39,13.70
2018,07,15,06,40,13.70
2018,07,15,06,41,13.70
2018,07,15,06,42,13.80
2018,07,15,06,43,13.80
2018,07,15,06,44,13.90
2018,07,15,06,45,13.90
2018,07,15,06,46,14.00
2018,07,15,06,47,14.00
2018,07,15,06,48,14.00
2018,07,15,06,49,14.10
2018,07,15,06,50,14.10
2018,07,15,06,51,14.20
2018,07,15,06,52,14.20
2018,07,15,06,53,14.20
2018,07,15,06,54,14.30
2018,07,15,06,55,14.30
2018,07,15,06,56,14.40
2018,07,15,06,57,14.50
2018,07,15,06,58,14.50
2018,07,15,06,59,14.60
2018,07,15,07,00,14.60
2018,07,15,07,01,14.70
2018,07,15,07,02,14.80
2018,07,15,07,03,14.80
2018,07,15,07,04,14.80
2018,07,15,07,05,14.90
2018,07,15,07,06,15.00
2018,07,15,07,07,15.00
2018,07,15,07,08,15.10
2018,07,15,07,09,15.10
2018,07,15,07,10,15.20
2018,07,15,07,11,15.30
2018,07,15,07,12,15.30
2018,07,15,07,13,15.30
2018,07,15,07,14,15.40
2018,07,15,07,15,15.40
2018,07,15,07,16,15.50
2018,07,15,07,17,15.50
2018,07,15,07,18,15.50
2018,07,15,07,19,15.50
2018,07,15,07,20,15.60
2018,07,15,07,21,15.60
2018,07,15,07,22,15.60
2018,07,15,07,23,15.60
2018,07,15,07,24,15.60
2018,07,15,07,25,15.60
2018,07,15,07,26,15.60
2018,07,15,07,27,15.60
2018,07,15,07,28,15.60
2018,07,15,07,29,15.60
2018,07,15,07,30,15.60
2018,07,15,07,31,15.60
2018,07,15,07,32,15.60
2018,07,15,07,33,15.70
2018,07,15,07,34,15.70
2018,07,15,07,35,15.70
2018,07,15,07,36,15.70
2018,07,15,07,37,15.70
2018,07,15,07,38,15.60
2018,07,15,07,39,15.50
2018,07,15,07,40,15.50
2018,07,15,07,41,15.40
2018,07,15,07,42,15.40
2018,07,15,07,43,15.40
2018,07,15,07,44,15.40
2018,07,15,07,45,15.40
2018,07,15,07,46,15.40
2018,07,15,07,47,15.40
2018,07,15,07,48,15.50
2018,07,15,07,49,15.50
2018,07,15,07,50,15.60
2018,07,15,07,51,15.60
2018,07,15,07,52,15.70
2018,07,15,07,53,15.80
2018,07,15,07,54,15.90
2018,07,15,07,55,15.90
2018,07,15,07,56,16.10
2018,07,15,07,57,16.10
2018,07,15,07,58,16.10
2018,07,15,07,59,16.10
2018,07,15,08,00,16.20
2018,07,15,08,01,16.20
2018,07,15,08,02,16.30
2018,07,15,08,03,16.30
2018,07,15,08,04,16.40
2018,07,15,08,05,16.40
2018,07,15,08,06,16.40
2018,07,15,08,07,16.40
2018,07,15,08,08,16.40
2018,07,15,08,09,16.40
2018,07,15,08,10,16.50
2018,07,15,08,11,16.60
2018,07,15,08,12,16.60
2018,07,15,08,13,16.70
2018,07,15,08,14,16.70
2018,07,15,08,15,16.80
2018,07,15,08,16,16.80
2018,07,15,08,17,16.80
2018,07,15,08,18,16.80
2018,07,15,08,19,16.70
2018,07,15,08,20,16.70
2018,07,15,08,21,16.70
2018,07,15,08,22,16.60
2018,07,15,08,23,16.60
2018,07,15,08,24,16.50
2018,07,15,08,25,16.40
2018,07,15,08,26,16.40
2018,07,15,08,27,16.40
2018,07,15,08,28,16.40
2018,07,15,08,29,16.40
2018,07,15,08,30,16.40
2018,07,15,08,31,16.40
2018,07,15,08,32,16.50
2018,07,15,08,33,16.60
2018,07,15,08,34,16.60
2018,07,15,08,35,16.70
2018,07,15,08,36,16.70
2018,07,15,08,37,16.80
2018,07,15,08,38,16.90
2018,07,15,08,39,17.10
2018,07,15,08,40,17.20
2018,07,15,08,41,17.40
2018,07,15,08,42,17.70
2018,07,15,08,43,17.90
2018,07,15,08,44,18.10
2018,07,15,08,45,18.20
2018,07,15,08,46,18.30
2018,07,15,08,47,18.40
2018,07,15,08,48,18.40
2018,07,15,08,49,18.40
2018,07,15,08,50,18.30
2018,07,15,08,51,18.30
2018,07,15,08,52,18.20
2018,07,15,08,53,18.20
2018,07,15,08,54,18.20
2018,07,15,08,55,18.20
2018,07,15,08,56,18.20
2018,07,15,08,57,18.20
2018,07,15,08,58,18.20
2018,07,15,08,59,18.20
2018,07,15,09,00,18.10
2018,07,15,09,01,18.10
2018,07,15,09,02,18.10
2018,07,15,09,03,18.10
2018,07,15,09,04,18.10
2018,07,15,09,05,18.10
2018,07,15,09,06,18.10
2018,07,15,09,07,18.10
2018,07,15,09,08,18.00
2018,07,15,09,09,17.90
2018,07,15,09,10,17.90
2018,07,15,09,11,17.90
2018,07,15,09,12,17.80
2018,07,15,09,13,17.80
2018,07,15,09,14,17.80
2018,07,15,09,15,17.70
2018,07,15,09,16,17.70
2018,07,15,09,17,17.70
2018,07,15,09,18,17.60
2018,07,15,09,19,17.50
2018,07,15,09,20,17.50
2018,07,15,09,21,17.40
2018,07,15,09,22,17.30
2018,07,15,09,23,17.30
2018,07,15,09,24,17.20
2018,07,15,09,25,17.10
2018,07,15,09,26,17.00
2018,07,15,09,27,16.90
2018,07,15,09,28,16.80
2018,07,15,09,29,16.70
2018,07,15,09,30,16.70
2018,07,15,09,31,16.70
2018,07,15,09,32,16.70
2018,07,15,09,33,16.60
2018,07,15,09,34,16.50
2018,07,15,09,35,16.40
2018,07,15,09,36,16.40
2018,07,15,09,37,16.40
2018,07,15,09,38,16.40
2018,07,15,09,39,16.50
2018,07,15,09,40,16.60
2018,07,15,09,41,16.60
2018,07,15,09,42,16.60
2018,07,15,09,43,16.60
2018,07,15,09,44,16.70
2018,07,15,09,45,16.70
2018,07,15,09,46,16.70
2018,07,15,09,47,16.80
2018,07,15,09,48,16.80
2018,07,15,09,49,16.90
2018,07,15,09,50,17.00
2018,07,15,09,51,17.00
2018,07,15,09,52,17.10
2018,07,15,09,53,17.30
2018,07,15,09,54,17.30
2018,07,15,09,55,17.50
2018,07,15,09,56,17.50
2018,07,15,09,57,17.70
2018,07,15,09,58,17.70
2018,07,15,09,59,17.80
2018,07,15,10,00,17.90
2018,07,15,10,01,17.90
2018,07,15,10,02,18.00
2018,07,15,10,03,18.10
2018,07,15,10,04,18.00
2018,07,15,10,05,17.90
2018,07,15,10,06,17.80
2018,07,15,10,07,17.60
2018,07,15,10,08,17.50
2018,07,15,10,09,17.50
2018,07,15,10,10,17.40
2018,07,15,10,11,17.40
2018,07,15,10,12,17.30
2018,07,15,10,13,17.30
2018,07,15,10,14,17.30
2018,07,15,10,15,17.30
2018,07,15,10,16,17.30
2018,07,15,10,17,17.20
2018,07,15,10,18,17.20
2018,07,15,10,19,17.20
2018,07,15,10,20,17.20
2018,07,15,10,21,17.20
2018,07,15,10,22,17.10
2018,07,15,10,23,17.10
2018,07,15,10,24,17.20
2018,07,15,10,25,17.30
2018,07,15,10,26,17.40
2018,07,15,10,27,17.50
2018,07,15,10,28,17.70
2018,07,15,10,29,17.90
2018,07,15,10,30,18.00
2018,07,15,10,31,18.30
2018,07,15,10,32,18.50
2018,07,15,10,33,18.90
2018,07,15,10,34,19.20
2018,07,15,10,35,19.70
2018,07,15,10,36,20.10
2018,07,15,10,37,20.50
2018,07,15,10,38,20.90
2018,07,15,10,39,21.20
2018,07,15,10,40,21.50
2018,07,15,10,41,21.70
2018,07,15,10,42,22.00
2018,07,15,10,43,22.20
2018,07,15,10,44,22.40
2018,07,15,10,45,22.60
2018,07,15,10,46,22.70
2018,07,15,10,47,22.70
2018,07,15,10,48,22.80
2018,07,15,10,49,22.80
2018,07,15,10,50,22.80
2018,07,15,10,51,22.80
2018,07,15,10,52,22.80
2018,07,15,10,53,22.80
2018,07,15,10,54,22.80
2018,07,15,10,55,22.90
2018,07,15,10,56,22.90
2018,07,15,10,57,22.90
2018,07,15,10,58,23.00
2018,07,15,10,59,23.10
2018,07,15,11,00,23.20
2018,07,15,11,01,23.30
2018,07,15,11,02,23.30
2018,07,15,11,03,23.50
2018,07,15,11,04,23.60
2018,07,15,11,05,23.70
2018,07,15,11,06,23.80
2018,07,15,11,07,23.90
2018,07,15,11,08,24.10
2018,07,15,11,09,24.20
2018,07,15,11,10,24.30
2018,07,15,11,11,24.40
2018,07,15,11,12,24.40
2018,07,15,11,13,24.40
2018,07,15,11,14,24.30
2018,07,15,11,15,24.20
2018,07,15,11,16,24.10
2018,07,15,11,17,24.10
2018,07,15,11,18,24.10
2018,07,15,11,19,24.10
2018,07,15,11,20,24.10
2018,07,15,11,21,24.00
2018,07,15,11,22,23.80
2018,07,15,11,23,23.70
2018,07,15,11,24,23.70
2018,07,15,11,25,23.70
2018,07,15,11,26,23.70
2018,07,15,11,27,23.70
2018,07,15,11,28,23.80
2018,07,15,11,29,23.80
2018,07,15,11,30,23.90
2018,07,15,11,31,23.90
2018,07,15,11,32,23.90
2018,07,15,11,33,23.80
2018,07,15,11,34,23.80
2018,07,15,11,35,23.90
2018,07,15,11,36,24.00
2018,07,15,11,37,24.10
2018,07,15,11,38,24.20
2018,07,15,11,39,24.30
2018,07,15,11,40,24.30
2018,07,15,11,41,24.40
2018,07,15,11,42,24.40
2018,07,15,11,43,24.50
2018,07,15,11,44,24.60
2018,07,15,11,45,24.70
2018,07,15,11,46,24.80
2018,07,15,11,47,24.90
2018,07,15,11,48,25.10
2018,07,15,11,49,25.20
2018,07,15,11,50,25.30
2018,07,15,11,51,25.40
2018,07,15,11,52,25.50
2018,07,15,11,53,25.60
2018,07,15,11,54,25.60
2018,07,15,11,55,25.60
2018,07,15,11,56,25.50
2018,07,15,11,57,25.40
2018,07,15,11,58,25.40
2018,07,15,11,59,25.40
2018,07,15,12,00,25.30
2018,07,15,12,01,25.30
2018,07,15,12,02,25.30
2018,07,15,12,03,25.30
2018,07,15,12,04,25.30
2018,07,15,12,05,25.30
2018,07,15,12,06,25.30
2018,07,15,12,07,25.40
2018,07,15,12,08,25.40
2018,07,15,12,09,25.30
2018,07,15,12,10,25.30
2018,07,15,12,11,25.20
2018,07,15,12,12,25.10
2018,07,15,12,13,25.10
2018,07,15,12,14,25.10
2018,07,15,12,15,25.10
2018,07,15,12,16,25.10
2018,07,15,12,17,25.20
2018,07,15,12,18,25.20
2018,07,15,12,19,25.20
2018,07,15,12,20,25.20
2018,07,15,12,21,25.30
2018,07,15,12,22,25.30
2018,07,15,12,23,25.40
2018,07,15,12,24,25.40
2018,07,15,12,25,25.40
2018,07,15,12,26,25.50
2018,07,15,12,27,25.50
2018,07,15,12,28,25.60
2018,07,15,12,29,25.60
2018,07,15,12,30,25.60
2018,07,15,12,31,25.60
2018,07,15,12,32,25.70
2018,07,15,12,33,25.70
2018,07,15,12,34,25.70
2018,07,15,12,35,25.80
2018,07,15,12,36,25.80
2018,07,15,12,37,25.90
2018,07,15,12,38,26.00
2018,07,15,12,39,26.10
2018,07,15,12,40,26.10
2018,07,15,12,41,26.10
2018,07,15,12,42,26.00
2018,07,15,12,43,26.00
2018,07,15,12,44,26.00
2018,07,15,12,45,26.00
2018,07,15,12,46,26.00
2018,07,15,12,47,26.00
2018,07,15,12,48,26.00
2018,07,15,12,49,25.90
2018,07,15,12,50,25.90
2018,07,15,12,51,25.80
2018,07,15,12,52,25.80
2018,07,15,12,53,25.80
2018,07,15,12,54,25.80
2018,07,15,12,55,25.90
2018,07,15,12,56,25.90
2018,07,15,12,57,26.10
2018,07,15,12,58,26.20
2018,07,15,12,59,26.30
2018,07,15,13,00,26.40
2018,07,15,13,01,26.40
2018,07,15,13,02,26.60
2018,07,15,13,03,26.60
2018,07,15,13,04,26.60
2018,07,15,13,05,26.60
2018,07,15,13,06,26.60
2018,07,15,13,07,26.60
2018,07,15,13,08,26.60
2018,07,15,13,09,26.60
2018,07,15,13,10,26.60
2018,07,15,13,11,26.60
2018,07,15,13,12,26.60
2018,07,15,13,13,26.50
2018,07,15,13,14,26.40
2018,07,15,13,15,26.30
2018,07,15,13,16,26.30
2018,07,15,13,17,26.20
2018,07,15,13,18,26.10
2018,07,15,13,19,25.90
2018,07,15,13,20,25.80
2018,07,15,13,21,25.60
2018,07,15,13,22,25.50
2018,07,15,13,23,25.30
2018,07,15,13,24,25.20
2018,07,15,13,25,25.10
2018,07,15,13,26,25.00
2018,07,15,13,27,25.00
2018,07,15,13,28,24.90
2018,07,15,13,29,24.90
2018,07,15,13,30,25.00
2018,07,15,13,31,25.00
2018,07,15,13,32,25.10
2018,07,15,13,33,25.20
2018,07,15,13,34,25.30
2018,07,15,13,35,25.40
2018,07,15,13,36,25.50
2018,07,15,13,37,25.60
2018,07,15,13,38,25.60
2018,07,15,13,39,25.70
2018,07,15,13,40,25.70
2018,07,15,13,41,25.80
2018,07,15,13,42,25.90
2018,07,15,13,43,26.00
2018,07,15,13,44,25.80
2018,07,15,13,45,25.40
2018,07,15,13,46,24.90
2018,07,15,13,47,24.40
2018,07,15,13,48,24.00
2018,07,15,13,49,23.80
2018,07,15,13,50,23.60
2018,07,15,13,51,23.30
2018,07,15,13,52,23.30
2018,07,15,13,53,23.10
2018,07,15,13,54,23.00
2018,07,15,13,55,22.90
2018,07,15,13,56,22.90
2018,07,15,13,57,22.90
2018,07,15,13,58,22.80
2018,07,15,13,59,22.70
2018,07,15,14,00,22.60
2018,07,15,14,01,22.50
2018,07,15,14,02,22.40
2018,07,15,14,03,22.50
2018,07,15,14,04,22.60
2018,07,15,14,05,22.90
2018,07,15,14,06,23.30
2018,07,15,14,07,23.80
2018,07,15,14,08,24.30
2018,07,15,14,09,24.80
2018,07,15,14,10,25.30
2018,07,15,14,11,25.70
2018,07,15,14,12,26.10
2018,07,15,14,13,26.50
2018,07,15,14,14,26.80
2018,07,15,14,15,27.10
2018,07,15,14,16,27.30
2018,07,15,14,17,27.60
2018,07,15,14,18,27.80
2018,07,15,14,19,28.00
2018,07,15,14,20,28.10
2018,07,15,14,21,28.20
2018,07,15,14,22,28.20
2018,07,15,14,23,28.40
2018,07,15,14,24,28.50
2018,07,15,14,25,28.60
2018,07,15,14,26,28.70
2018,07,15,14,27,28.70
2018,07,15,14,28,28.70
2018,07,15,14,29,28.70
2018,07,15,14,30,28.70
2018,07,15,14,31,28.60
2018,07,15,14,32,28.60
2018,07,15,14,33,28.50
2018,07,15,14,34,28.40
2018,07,15,14,35,28.40
2018,07,15,14,36,28.30
2018,07,15,14,37,28.30
2018,07,15,14,38,28.30
2018,07,15,14,39,28.30
2018,07,15,14,40,28.30
2018,07,15,14,41,28.30
2018,07,15,14,42,28.30
2018,07,15,14,43,28.30
2018,07,15,14,44,28.30
2018,07,15,14,45,28.30
2018,07,15,14,46,28.30
2018,07,15,14,47,28.30
2018,07,15,14,48,28.20
2018,07,15,14,49,28.20
2018,07,15,14,50,28.20
2018,07,15,14,51,28.20
2018,07,15,14,52,28.30
2018,07,15,14,53,28.30
2018,07,15,14,54,28.40
2018,07,15,14,55,28.50
2018,07,15,14,56,28.70
2018,07,15,14,57,28.80
2018,07,15,14,58,28.90
2018,07,15,14,59,29.00
2018,07,15,15,00,29.10
2018,07,15,15,01,29.10
2018,07,15,15,02,28.80
2018,07,15,15,03,28.20
2018,07,15,15,04,27.60
2018,07,15,15,05,27.10
2018,07,15,15,06,26.70
2018,07,15,15,07,26.30
2018,07,15,15,08,26.00
2018,07,15,15,09,25.70
2018,07,15,15,10,25.50
2018,07,15,15,11,25.30
2018,07,15,15,12,25.10
2018,07,15,15,13,25.00
2018,07,15,15,14,24.90
2018,07,15,15,15,24.70
2018,07,15,15,16,24.70
2018,07,15,15,17,24.60
2018,07,15,15,18,24.60
2018,07,15,15,19,24.50
2018,07,15,15,20,24.50
2018,07,15,15,21,24.40
2018,07,15,15,22,24.30
2018,07,15,15,23,24.30
2018,07,15,15,24,24.30
2018,07,15,15,25,24.30
2018,07,15,15,26,24.20
2018,07,15,15,27,24.30
2018,07,15,15,28,24.30
2018,07,15,15,29,24.20
2018,07,15,15,30,24.20
2018,07,15,15,31,24.20
2018,07,15,15,32,24.20
2018,07,15,15,33,24.20
2018,07,15,15,34,24.30
2018,07,15,15,35,24.20
2018,07,15,15,36,24.00
2018,07,15,15,37,23.80
2018,07,15,15,38,23.70
2018,07,15,15,39,23.70
2018,07,15,15,40,23.70
2018,07,15,15,41,23.70
2018,07,15,15,42,23.70
2018,07,15,15,43,23.70
2018,07,15,15,44,23.70
2018,07,15,15,45,23.80
2018,07,15,15,46,23.90
2018,07,15,15,47,24.00
2018,07,15,15,48,24.10
2018,07,15,15,49,24.10
2018,07,15,15,50,24.10
2018,07,15,15,51,24.10
2018,07,15,15,52,24.10
2018,07,15,15,53,24.20
2018,07,15,15,54,24.30
2018,07,15,15,55,24.30
2018,07,15,15,56,24.30
2018,07,15,15,57,24.30
2018,07,15,15,58,24.30
2018,07,15,15,59,24.20
2018,07,15,16,00,24.10
2018,07,15,16,01,24.00
2018,07,15,16,02,23.90
2018,07,15,16,03,23.80
2018,07,15,16,04,23.70
2018,07,15,16,05,23.80
2018,07,15,16,06,23.80
2018,07,15,16,07,23.90
2018,07,15,16,08,23.90
2018,07,15,16,09,23.90
2018,07,15,16,10,24.00
2018,07,15,16,11,24.10
2018,07,15,16,12,24.10
2018,07,15,16,13,24.10
2018,07,15,16,14,24.10
2018,07,15,16,15,24.10
2018,07,15,16,16,24.00
2018,07,15,16,17,23.90
2018,07,15,16,18,23.90
2018,07,15,16,19,23.90
2018,07,15,16,20,23.90
2018,07,15,16,21,23.90
2018,07,15,16,22,24.00
2018,07,15,16,23,24.10
2018,07,15,16,24,24.20
2018,07,15,16,25,24.30
2018,07,15,16,26,24.30
2018,07,15,16,27,24.40
2018,07,15,16,28,24.50
2018,07,15,16,29,24.60
2018,07,15,16,30,24.70
2018,07,15,16,31,24.90
2018,07,15,16,32,25.00
2018,07,15,16,33,25.10
2018,07,15,16,34,25.20
2018,07,15,16,35,25.40
2018,07,15,16,36,25.40
2018,07,15,16,37,25.50
2018,07,15,16,38,25.60
2018,07,15,16,39,25.70
2018,07,15,16,40,25.80
2018,07,15,16,41,25.90
2018,07,15,16,42,25.90
2018,07,15,16,43,26.00
2018,07,15,16,44,26.20
2018,07,15,16,45,26.40
2018,07,15,16,46,26.50
2018,07,15,16,47,26.60
2018,07,15,16,48,26.80
2018,07,15,16,49,26.90
2018,07,15,16,50,27.10
2018,07,15,16,51,27.20
2018,07,15,16,52,27.30
2018,07,15,16,53,27.30
2018,07,15,16,54,27.30
2018,07,15,16,55,27.40
2018,07,15,16,56,27.40
2018,07,15,16,57,27.40
2018,07,15,16,58,27.40
2018,07,15,16,59,27.30
2018,07,15,17,00,27.30
2018,07,15,17,01,27.30
2018,07,15,17,02,27.30
2018,07,15,17,03,27.30
2018,07,15,17,04,27.30
2018,07,15,17,05,27.30
2018,07,15,17,06,27.30
2018,07,15,17,07,27.30
2018,07,15,17,08,27.40
2018,07,15,17,09,27.40
2018,07,15,17,10,27.40
2018,07,15,17,11,27.40
2018,07,15,17,12,27.40
2018,07,15,17,13,27.40
2018,07,15,17,14,27.40
2018,07,15,17,15,27.50
2018,07,15,17,16,27.70
2018,07,15,17,17,27.90
2018,07,15,17,18,28.10
2018,07,15,17,19,28.30